map of ZFA home
ZFA - Airport
Location
City:  Faro, Yukon, Canada
Name:Faro Airport
ICAO:CZFA
IATA:ZFA

Details
Type:Airport (Airfield)
Use:Public/Civil
Latitude:6212'25"N (62.206944)
Longitude:13322'24"W (-133.373332)
Elevation:2350 ft (716 m)
Variation:20.00E (WMM2015v2 magnetic declination)
-0.28 annual change
Runways:1
Longest:3997 ft (1218 m)

Weather
METAR:CZFA 032300Z 14007KT 30SM FEW200 SCT220 BKN240 M31/M36 A3023 RMK CS2CC2CI3 CLIMAT -31.3/-41.0/0.0 LAST STFD OBS/NXT 041500Z SLP358
TAF:CZFA 031738Z 0318/0323 13006KT P6SM BKN200
TEMPO 0318/0321 3SM IC BR
FM032100 11005KT P6SM BKN150
TEMPO 0321/0323 3SM IC BR
RMK NXT FCST WILL BE ISSUED AT 041645Z

Related Locations
Nearby:
Farthest:YWKS: 10558 mi / 16992 km
Wilkins Runway (Casey), Upper Peterson Glacier, AQ

Find:

   beyond  
but within

Other Information
Maps:
NOTAMs:
Links:
Sources:

  
  • flag of Canada
  • flag of Yukon
  

Airport Diagram

Airport diagram for ZFA

Airport diagram PDF

Sectional Chart

Flight Planning
at skyvector.com

Satellite Image

Google Maps Satellite view

 

Copyright © 2004-2019 Karl L. Swartz. All rights reserved.
The Great Circle Mapper name and logo are trademarks of the Great Circle Mapper.
All other trademarks mentioned herein belong to their respective owners.
Please see credits for attibutions and further copyright information.

  Follow gcmap on Facebook Follow gcmap on Twitter GCmap on LinkedIn

hCard Microformat

Geo Microformat